Vitoria, Spain

7:44 PM CEST on September 25, 2016 (GMT +0200)
Foronda

Weather History for LEVT - September, 2012

Change the Weather History Date:

Saturday, September 29, 2012

  Actual Average Record
Temperature  
Mean Temperature 56 °F -  
Max Temperature 60 °F 71 °F 86 °F (2004)
Min Temperature 51 °F 47 °F 35 °F (2008)
Degree Days  
Heating Degree Days 10    
Growing Degree Days 6 (Base 50)    
Moisture  
Dew Point 52 °F    
Average Humidity 89    
Maximum Humidity 100    
Minimum Humidity 67    
Precipitation  
Precipitation 0.00 in - - ()
Sea Level Pressure  
Sea Level Pressure 30.07 in    
Wind  
Wind Speed 8 mph ()    
Max Wind Speed 18 mph    
Max Gust Speed 30 mph    
Visibility 5.8 miles    
Events Rain    
Averages and records for this station are not official NWS values.
T = Trace of Precipitation, MM = Missing Value Source: Averaged Metar Reports

Daily Weather History Graph

Daily Weather History Graph

Search for Another Location

Airport or City:

Trip Planner

Search our weather history database for the weather conditions in past years. The results will help you decide how hot, cold, wet, or windy it might be!

Date:

Astronomy

Sep. 29, 2012 Rise Set
Actual Time 8:06 AM CEST 7:55 PM CEST
Civil Twilight 7:37 AM CEST 8:23 PM CEST
Nautical Twilight 7:05 AM CEST 8:56 PM CEST
Astronomical Twilight 6:31 AM CEST 9:29 PM CEST
Moon 7:19 PM CEST (9/29) 7:22 AM CEST (9/29)
Length of Visible Light 12h 45m
Length of Day
11h 49m
Waxing Gibbous, 99% of the Moon is Illuminated
Sep 29
Waxing Gibbous
Sep 30
Full
Oct 8
Last Quarter
Oct 15
New
Oct 22
First Quarter

Hourly Weather History & Observations

Time (CEST) Temp. Dew Point Humidity Pressure Visibility Wind Dir Wind Speed Gust Speed Precip Events Conditions
12:00 AM 57.2 °F 55.4 °F 94% 30.04 in 6.2 mi North 4.6 mph - N/A Rain Light Rain
12:30 AM 57.2 °F 55.4 °F 94% 30.04 in 6.2 mi North 5.8 mph - N/A   Mostly Cloudy
1:00 AM 57.2 °F 55.4 °F 94% 30.04 in 6.2 mi North 6.9 mph - N/A Rain Light Rain
1:30 AM 57.2 °F 55.4 °F 94% 30.04 in 6.2 mi NNE 8.1 mph - N/A Rain Light Rain
2:00 AM 57.2 °F 55.4 °F 94% 30.01 in 6.2 mi North 8.1 mph - N/A Rain Light Rain
2:30 AM 57.2 °F 55.4 °F 94% 30.01 in 6.2 mi NNE 5.8 mph - N/A Rain Light Rain
3:00 AM 57.2 °F 55.4 °F 94% 30.01 in 6.2 mi NNE 9.2 mph - N/A Rain Light Rain
3:30 AM 55.4 °F 53.6 °F 94% 30.01 in 5.6 mi NNE 9.2 mph - N/A Rain Light Rain
4:00 AM 55.4 °F 53.6 °F 94% 30.01 in 5.6 mi NNE 8.1 mph - N/A Rain Rain
4:30 AM 55.4 °F 53.6 °F 94% 29.98 in 5.6 mi NNE 9.2 mph - N/A Rain Rain
5:00 AM 55.4 °F 53.6 °F 94% 29.98 in 6.2 mi NNE 9.2 mph - N/A Rain Light Rain
5:30 AM 55.4 °F 53.6 °F 94% 29.98 in 6.2 mi NNE 8.1 mph - N/A Rain Light Rain
6:00 AM 55.4 °F 53.6 °F 94% 29.98 in 6.2 mi NNE 8.1 mph - N/A Rain Light Rain
6:30 AM 55.4 °F 53.6 °F 94% 30.01 in 6.2 mi NE 10.4 mph - N/A Rain Light Rain
7:00 AM 55.4 °F 53.6 °F 94% 30.01 in 6.2 mi NNE 8.1 mph - N/A Rain Light Rain
7:30 AM 55.4 °F 53.6 °F 94% 30.04 in 6.2 mi NNE 6.9 mph - N/A Rain Light Rain
8:00 AM 55.4 °F 53.6 °F 94% 30.04 in 5.0 mi North 9.2 mph - N/A Rain Light Rain
8:30 AM 53.6 °F 53.6 °F 100% 30.04 in 3.7 mi North 8.1 mph - N/A Rain Rain
9:00 AM 55.4 °F 53.6 °F 94% 30.04 in 3.7 mi NNE 8.1 mph - N/A Rain Rain
9:30 AM 55.4 °F 53.6 °F 94% 30.06 in 3.7 mi NNE 9.2 mph - N/A Rain Rain
10:00 AM 55.4 °F 53.6 °F 94% 30.06 in 3.7 mi NNE 9.2 mph - N/A Rain Rain
10:30 AM 55.4 °F 53.6 °F 94% 30.06 in 6.2 mi NNE 11.5 mph - N/A Rain Light Rain
11:00 AM 53.6 °F 51.8 °F 94% 30.09 in 6.2 mi NNE 10.4 mph - N/A Rain Light Rain
11:30 AM 53.6 °F 51.8 °F 94% 30.09 in 6.2 mi NNE 8.1 mph - N/A Rain Light Rain
12:00 PM 53.6 °F 51.8 °F 94% 30.09 in 6.2 mi NNE 5.8 mph - N/A Rain Light Rain
12:30 PM 53.6 °F 51.8 °F 94% 30.09 in 6.2 mi NNE 6.9 mph - N/A   Mostly Cloudy
1:00 PM 55.4 °F 51.8 °F 88% 30.09 in 6.2 mi NNE 10.4 mph - N/A   Mostly Cloudy
1:30 PM 57.2 °F 53.6 °F 88% 30.09 in 6.2 mi North 13.8 mph - N/A   Mostly Cloudy
2:00 PM 57.2 °F 50.0 °F 77% 30.09 in 6.2 mi NNE 13.8 mph - N/A   Mostly Cloudy
2:30 PM 59.0 °F 51.8 °F 77% 30.09 in 6.2 mi NNE 11.5 mph - N/A   Mostly Cloudy
3:00 PM 59.0 °F 48.2 °F 67% 30.09 in 6.2 mi North 15.0 mph - N/A   Mostly Cloudy
3:30 PM 59.0 °F 50.0 °F 72% 30.09 in 6.2 mi NNE 15.0 mph - N/A   Mostly Cloudy
4:30 PM 60.8 °F 50.0 °F 68% 30.09 in 6.2 mi North 17.3 mph - N/A   Scattered Clouds
5:00 PM 59.0 °F 48.2 °F 67% 30.09 in 6.2 mi North 18.4 mph 29.9 mph N/A   Scattered Clouds
5:30 PM 57.2 °F 48.2 °F 72% 30.09 in 6.2 mi North 15.0 mph - N/A   Scattered Clouds
6:00 PM 57.2 °F 48.2 °F 72% 30.09 in 6.2 mi North 12.7 mph - N/A   Mostly Cloudy
6:30 PM 57.2 °F 48.2 °F 72% 30.09 in 6.2 mi North 13.8 mph - N/A   Mostly Cloudy
7:00 PM 55.4 °F 50.0 °F 82% 30.12 in 6.2 mi North 11.5 mph - N/A   Overcast
7:30 PM 53.6 °F 50.0 °F 88% 30.12 in 6.2 mi North 5.8 mph - N/A   Overcast
8:00 PM 53.6 °F 51.8 °F 94% 30.12 in 3.7 mi North 4.6 mph - N/A Rain Rain
8:30 PM 53.6 °F 51.8 °F 94% 30.15 in 5.0 mi NNE 8.1 mph - N/A   Mostly Cloudy
9:00 PM 51.8 °F 50.0 °F 94% 30.15 in 4.3 mi NNE 6.9 mph - N/A   Drizzle
9:30 PM 51.8 °F 51.8 °F 100% 30.15 in 5.0 mi NNE 4.6 mph - N/A   Drizzle
10:00 PM 53.6 °F 50.0 °F 88% 30.18 in 6.2 mi North 5.8 mph - N/A   Mostly Cloudy
10:30 PM 51.8 °F 48.2 °F 88% 30.18 in 6.2 mi NNE 6.9 mph - N/A   Mostly Cloudy
11:00 PM 51.8 °F 48.2 °F 88% 30.18 in 6.2 mi North 5.8 mph - N/A   Mostly Cloudy
11:30 PM 51.8 °F 46.4 °F 82% 30.21 in 6.2 mi NNW 4.6 mph - N/A   Mostly Cloudy